Time,TemperatureF,DewpointF,PressureIn,WindDirection,WindDirectionDegrees,WindSpeedMPH,WindSpeedGustMPH,Humidity,HourlyPrecipIn,Conditions,Clouds,dailyrainin,SoftwareType,DateUTC
2013-03-06 00:13:00,27.5,24.0,30.36,WNW,297,6.0,-999.0,86,-99.99,,,0.06,weatherlink.com 1.10,2013-03-06 06:13:00,
2013-03-06 00:28:00,27.2,24.0,30.36,WNW,299,10.0,-999.0,87,-99.99,,,0.06,weatherlink.com 1.10,2013-03-06 06:28:00,
2013-03-06 00:42:00,26.7,23.0,30.36,NW,311,10.0,-999.0,87,-99.99,,,0.00,weatherlink.com 1.10,2013-03-06 06:42:00,
2013-03-06 00:57:00,26.1,23.0,30.36,NW,307,5.0,-999.0,87,-99.99,,,0.00,weatherlink.com 1.10,2013-03-06 06:57:00,
2013-03-06 01:13:00,25.5,22.0,30.37,NW,306,9.0,-999.0,87,-99.99,,,0.00,weatherlink.com 1.10,2013-03-06 07:13:00,
2013-03-06 01:28:00,25.5,22.0,30.38,WNW,294,9.0,-999.0,87,-99.99,,,0.00,weatherlink.com 1.10,2013-03-06 07:28:00,
2013-03-06 01:43:00,26.1,23.0,30.38,NW,309,4.0,-999.0,86,-99.99,,,0.00,weatherlink.com 1.10,2013-03-06 07:43:00,
2013-03-06 01:58:00,26.1,23.0,30.39,WNW,296,7.0,-999.0,86,-99.99,,,0.00,weatherlink.com 1.10,2013-03-06 07:58:00,
2013-03-06 02:13:00,26.0,22.0,30.39,WNW,292,8.0,-999.0,86,-99.99,,,0.00,weatherlink.com 1.10,2013-03-06 08:13:00,
2013-03-06 02:28:00,25.9,22.0,30.40,WNW,298,10.0,-999.0,86,-99.99,,,0.00,weatherlink.com 1.10,2013-03-06 08:28:00,
2013-03-06 02:43:00,26.0,22.0,30.40,WNW,295,7.0,-999.0,86,-99.99,,,0.00,weatherlink.com 1.10,2013-03-06 08:43:00,
2013-03-06 02:58:00,25.8,22.0,30.41,WNW,302,9.0,-999.0,86,-99.99,,,0.00,weatherlink.com 1.10,2013-03-06 08:58:00,
2013-03-06 03:14:00,25.7,22.0,30.41,WNW,296,5.0,-999.0,87,-99.99,,,0.00,weatherlink.com 1.10,2013-03-06 09:14:00,
2013-03-06 03:29:00,25.5,22.0,30.41,WNW,302,7.0,-999.0,87,-99.99,,,0.00,weatherlink.com 1.10,2013-03-06 09:29:00,
2013-03-06 03:43:00,25.4,22.0,30.41,WNW,288,4.0,-999.0,87,-99.99,,,0.00,weatherlink.com 1.10,2013-03-06 09:43:00,
2013-03-06 03:58:00,25.4,22.0,30.42,WNW,293,5.0,-999.0,87,-99.99,,,0.00,weatherlink.com 1.10,2013-03-06 09:58:00,
2013-03-06 04:14:00,25.4,22.0,30.42,WNW,297,2.0,-999.0,86,-99.99,,,0.00,weatherlink.com 1.10,2013-03-06 10:14:00,
2013-03-06 04:29:00,25.5,22.0,30.43,WNW,285,4.0,-999.0,86,-99.99,,,0.00,weatherlink.com 1.10,2013-03-06 10:29:00,
2013-03-06 04:43:00,25.6,22.0,30.43,WNW,286,3.0,-999.0,85,-99.99,,,0.00,weatherlink.com 1.10,2013-03-06 10:43:00,
2013-03-06 04:58:00,25.5,22.0,30.44,West,272,7.0,-999.0,85,-99.99,,,0.00,weatherlink.com 1.10,2013-03-06 10:58:00,
2013-03-06 05:14:00,25.3,22.0,30.45,NW,308,7.0,-999.0,86,-99.99,,,0.00,weatherlink.com 1.10,2013-03-06 11:14:00,
2013-03-06 05:29:00,25.0,21.0,30.45,WNW,298,3.0,-999.0,86,-99.99,,,0.00,weatherlink.com 1.10,2013-03-06 11:29:00,
2013-03-06 05:44:00,24.7,21.0,30.45,NW,304,10.0,-999.0,86,-99.99,,,0.00,weatherlink.com 1.10,2013-03-06 11:44:00,
2013-03-06 05:59:00,23.8,20.0,30.45,NW,311,3.0,-999.0,86,-99.99,,,0.00,weatherlink.com 1.10,2013-03-06 11:59:00,
2013-03-06 06:15:00,22.8,20.0,30.46,NW,311,4.0,-999.0,87,-99.99,,,0.00,weatherlink.com 1.10,2013-03-06 12:15:00,
2013-03-06 06:30:00,22.5,19.0,30.46,WNW,301,5.0,-999.0,87,-99.99,,,0.00,weatherlink.com 1.10,2013-03-06 12:30:00,
2013-03-06 06:44:00,22.5,19.0,30.47,WNW,301,4.0,-999.0,86,-99.99,,,0.00,weatherlink.com 1.10,2013-03-06 12:44:00,
2013-03-06 06:59:00,22.2,19.0,30.47,WNW,292,3.0,-999.0,86,-99.99,,,0.00,weatherlink.com 1.10,2013-03-06 12:59:00,
2013-03-06 07:15:00,22.0,19.0,30.48,WNW,297,1.0,-999.0,86,-99.99,,,0.00,weatherlink.com 1.10,2013-03-06 13:15:00,
2013-03-06 07:30:00,22.1,19.0,30.48,WNW,302,6.0,-999.0,86,-99.99,,,0.00,weatherlink.com 1.10,2013-03-06 13:30:00,
2013-03-06 07:44:00,21.8,18.0,30.49,NW,318,5.0,-999.0,86,-99.99,,,0.00,weatherlink.com 1.10,2013-03-06 13:44:00,
2013-03-06 07:59:00,21.9,18.0,30.49,NW,306,7.0,-999.0,85,-99.99,,,0.00,weatherlink.com 1.10,2013-03-06 13:59:00,
2013-03-06 08:15:00,22.3,18.0,30.49,West,273,6.0,-999.0,84,-99.99,,,0.00,weatherlink.com 1.10,2013-03-06 14:15:00,
2013-03-06 08:39:00,23.0,20.0,30.49,NW,319,2.0,-999.0,89,-99.99,,,0.00,weatherlink.com 1.10,2013-03-06 14:39:00,
2013-03-06 08:45:00,23.3,19.0,30.49,NW,311,6.0,-999.0,82,-99.99,,,0.00,weatherlink.com 1.10,2013-03-06 14:45:00,
2013-03-06 09:00:00,23.8,19.0,30.50,NW,304,2.0,-999.0,81,-99.99,,,0.00,weatherlink.com 1.10,2013-03-06 15:00:00,
2013-03-06 09:16:00,24.7,19.0,30.50,NW,321,1.0,-999.0,78,-99.99,,,0.00,weatherlink.com 1.10,2013-03-06 15:16:00,
2013-03-06 09:39:00,26.0,19.0,30.50,NW,313,4.0,-999.0,76,-99.99,,,0.00,weatherlink.com 1.10,2013-03-06 15:39:00,
2013-03-06 10:00:00,27.0,19.0,30.51,WNW,295,5.0,-999.0,73,-99.99,,,0.00,weatherlink.com 1.10,2013-03-06 16:00:00,
2013-03-06 10:15:00,26.7,19.0,30.50,NW,310,6.0,-999.0,74,-99.99,,,0.00,weatherlink.com 1.10,2013-03-06 16:15:00,
2013-03-06 10:30:00,27.2,20.0,30.50,NNW,328,3.0,-999.0,74,-99.99,,,0.00,weatherlink.com 1.10,2013-03-06 16:30:00,
2013-03-06 10:45:00,27.8,21.0,30.50,NW,326,4.0,-999.0,74,-99.99,,,0.00,weatherlink.com 1.10,2013-03-06 16:45:00,
2013-03-06 11:00:00,28.1,20.0,30.50,West,278,10.0,-999.0,73,-99.99,,,0.00,weatherlink.com 1.10,2013-03-06 17:00:00,
2013-03-06 11:25:00,28.9,21.0,30.50,NW,313,4.0,-999.0,71,-99.99,,,0.00,weatherlink.com 1.10,2013-03-06 17:25:00,
2013-03-06 11:39:00,29.4,21.0,30.50,WNW,286,8.0,-999.0,71,-99.99,,,0.00,weatherlink.com 1.10,2013-03-06 17:39:00,
2013-03-06 11:46:00,28.8,21.0,30.50,NNW,331,1.0,-999.0,72,-99.99,,,0.00,weatherlink.com 1.10,2013-03-06 17:46:00,
2013-03-06 12:01:00,28.7,21.0,30.49,NNW,327,2.0,-999.0,73,-99.99,,,0.00,weatherlink.com 1.10,2013-03-06 18:01:00,
2013-03-06 12:16:00,28.1,20.0,30.48,WNW,298,4.0,-999.0,73,-99.99,,,0.00,weatherlink.com 1.10,2013-03-06 18:16:00,
2013-03-06 12:39:00,28.3,21.0,30.48,WNW,289,5.0,-999.0,73,-99.99,,,0.00,weatherlink.com 1.10,2013-03-06 18:39:00,
2013-03-06 12:46:00,28.1,21.0,30.48,WNW,298,5.0,-999.0,74,-99.99,,,0.00,weatherlink.com 1.10,2013-03-06 18:46:00,
2013-03-06 13:01:00,28.6,21.0,30.48,NNW,346,8.0,-999.0,73,-99.99,,,0.00,weatherlink.com 1.10,2013-03-06 19:01:00,
2013-03-06 13:16:00,28.6,21.0,30.48,NW,309,7.0,-999.0,74,-99.99,,,0.00,weatherlink.com 1.10,2013-03-06 19:16:00,
2013-03-06 13:39:00,29.1,21.0,30.47,NNW,347,5.0,-999.0,73,-99.99,,,0.00,weatherlink.com 1.10,2013-03-06 19:39:00,
2013-03-06 13:46:00,28.8,21.0,30.47,NNE,15,1.0,-999.0,72,-99.99,,,0.00,weatherlink.com 1.10,2013-03-06 19:46:00,
2013-03-06 14:01:00,28.4,21.0,30.47,West,278,2.0,-999.0,73,-99.99,,,0.00,weatherlink.com 1.10,2013-03-06 20:01:00,
2013-03-06 14:16:00,29.3,21.0,30.46,WNW,299,5.0,-999.0,72,-99.99,,,0.00,weatherlink.com 1.10,2013-03-06 20:16:00,
2013-03-06 14:39:00,29.0,21.0,30.46,NNW,338,4.0,-999.0,73,-99.99,,,0.00,weatherlink.com 1.10,2013-03-06 20:39:00,
2013-03-06 14:47:00,28.8,21.0,30.46,NW,304,3.0,-999.0,73,-99.99,,,0.00,weatherlink.com 1.10,2013-03-06 20:47:00,
2013-03-06 15:02:00,28.5,21.0,30.46,NW,317,5.0,-999.0,73,-99.99,,,0.00,weatherlink.com 1.10,2013-03-06 21:02:00,
2013-03-06 15:16:00,28.6,21.0,30.46,NNW,348,3.0,-999.0,73,-99.99,,,0.00,weatherlink.com 1.10,2013-03-06 21:16:00,
2013-03-06 15:39:00,28.7,21.0,30.46,NNW,332,4.0,-999.0,73,-99.99,,,0.00,weatherlink.com 1.10,2013-03-06 21:39:00,
2013-03-06 15:47:00,28.9,22.0,30.46,North,355,1.0,-999.0,74,-99.99,,,0.00,weatherlink.com 1.10,2013-03-06 21:47:00,
2013-03-06 16:02:00,28.3,21.0,30.46,WNW,283,2.0,-999.0,74,-99.99,,,0.00,weatherlink.com 1.10,2013-03-06 22:02:00,
2013-03-06 16:17:00,28.1,21.0,30.46,WNW,301,4.0,-999.0,75,-99.99,,,0.00,weatherlink.com 1.10,2013-03-06 22:17:00,
2013-03-06 16:39:00,29.6,22.0,30.46,NNW,346,4.0,-999.0,72,-99.99,,,0.00,weatherlink.com 1.10,2013-03-06 22:39:00,
2013-03-06 16:47:00,28.7,21.0,30.46,NW,319,0.0,-999.0,74,-99.99,,,0.00,weatherlink.com 1.10,2013-03-06 22:47:00,
2013-03-06 17:02:00,28.2,22.0,30.45,NNW,328,1.0,-999.0,76,-99.99,,,0.00,weatherlink.com 1.10,2013-03-06 23:02:00,
2013-03-06 17:17:00,27.6,21.0,30.45,NW,313,4.0,-999.0,77,-99.99,,,0.00,weatherlink.com 1.10,2013-03-06 23:17:00,
2013-03-06 17:33:00,27.2,21.0,30.45,NW,317,2.0,-999.0,78,-99.99,,,0.00,weatherlink.com 1.10,2013-03-06 23:33:00,
2013-03-06 17:48:00,26.9,21.0,30.46,NW,308,1.0,-999.0,79,-99.99,,,0.00,weatherlink.com 1.10,2013-03-06 23:48:00,
2013-03-06 18:03:00,26.3,20.0,30.46,NW,308,1.0,-999.0,78,-99.99,,,0.00,weatherlink.com 1.10,2013-03-07 00:03:00,
2013-03-06 18:18:00,25.6,20.0,30.45,NW,317,0.0,-999.0,79,-99.99,,,0.00,weatherlink.com 1.10,2013-03-07 00:18:00,
2013-03-06 18:39:00,25.1,20.0,30.45,NW,317,0.0,-999.0,80,-99.99,,,0.00,weatherlink.com 1.10,2013-03-07 00:39:00,
2013-03-06 18:48:00,24.5,20.0,30.45,NW,317,0.0,-999.0,82,-99.99,,,0.00,weatherlink.com 1.10,2013-03-07 00:48:00,
2013-03-06 19:03:00,24.0,19.0,30.45,NW,317,0.0,-999.0,82,-99.99,,,0.00,weatherlink.com 1.10,2013-03-07 01:03:00,
2013-03-06 19:18:00,23.6,19.0,30.45,NW,317,0.0,-999.0,83,-99.99,,,0.00,weatherlink.com 1.10,2013-03-07 01:18:00,
2013-03-06 19:39:00,23.0,19.0,30.45,NW,317,0.0,-999.0,84,-99.99,,,0.00,weatherlink.com 1.10,2013-03-07 01:39:00,
2013-03-06 19:48:00,22.2,19.0,30.44,NW,317,1.0,-999.0,86,-99.99,,,0.00,weatherlink.com 1.10,2013-03-07 01:48:00,
2013-03-06 20:03:00,22.0,19.0,30.44,NW,317,1.0,-999.0,86,-99.99,,,0.00,weatherlink.com 1.10,2013-03-07 02:03:00,
2013-03-06 20:18:00,21.8,18.0,30.44,NW,317,0.0,-999.0,86,-99.99,,,0.00,weatherlink.com 1.10,2013-03-07 02:18:00,
2013-03-06 20:39:00,21.0,17.0,30.43,NW,317,0.0,-999.0,85,-99.99,,,0.00,weatherlink.com 1.10,2013-03-07 02:39:00,
2013-03-06 20:48:00,19.1,16.0,30.44,NW,317,0.0,-999.0,86,-99.99,,,0.00,weatherlink.com 1.10,2013-03-07 02:48:00,
2013-03-06 21:03:00,19.5,19.0,30.44,NW,317,0.0,-999.0,98,-99.99,,,0.00,weatherlink.com 1.10,2013-03-07 03:03:00,
2013-03-06 21:19:00,19.6,17.0,30.44,NW,317,0.0,-999.0,89,-99.99,,,0.00,weatherlink.com 1.10,2013-03-07 03:19:00,
2013-03-06 21:35:00,19.4,17.0,30.44,NW,317,0.0,-999.0,89,-99.99,,,0.00,weatherlink.com 1.10,2013-03-07 03:35:00,
2013-03-06 21:49:00,18.8,16.0,30.44,NW,317,0.0,-999.0,89,-99.99,,,0.00,weatherlink.com 1.10,2013-03-07 03:49:00,
2013-03-06 22:04:00,17.9,15.0,30.43,NW,317,0.0,-999.0,88,-99.99,,,0.00,weatherlink.com 1.10,2013-03-07 04:04:00,
2013-03-06 22:19:00,17.5,15.0,30.44,NW,317,0.0,-999.0,89,-99.99,,,0.00,weatherlink.com 1.10,2013-03-07 04:19:00,
2013-03-06 22:39:00,17.9,16.0,30.44,NW,317,0.0,-999.0,90,-99.99,,,0.00,weatherlink.com 1.10,2013-03-07 04:39:00,
2013-03-06 22:49:00,17.8,15.0,30.44,NW,317,0.0,-999.0,90,-99.99,,,0.00,weatherlink.com 1.10,2013-03-07 04:49:00,
2013-03-06 23:04:00,18.0,16.0,30.45,NW,317,0.0,-999.0,90,-99.99,,,0.00,weatherlink.com 1.10,2013-03-07 05:04:00,
2013-03-06 23:20:00,18.4,16.0,30.44,NW,317,0.0,-999.0,90,-99.99,,,0.00,weatherlink.com 1.10,2013-03-07 05:20:00,
2013-03-06 23:39:00,18.2,16.0,30.44,NW,317,0.0,-999.0,89,-99.99,,,0.00,weatherlink.com 1.10,2013-03-07 05:39:00,
2013-03-06 23:49:00,18.2,16.0,30.44,NW,317,0.0,-999.0,90,-99.99,,,0.00,weatherlink.com 1.10,2013-03-07 05:49:00,